Observations for Trim Market St
| Time | AQI | Temp °C | Hum % | Pres Pa | CO μg/m³ | H₂S μg/m³ | NO μg/m³ | NO₂ μg/m³ | O₃ μg/m³ | SO₂ μg/m³ | PM1 μg/m³ | PM2.5 μg/m³ | PM10 μg/m³ |
|---|---|---|---|---|---|---|---|---|---|---|---|---|---|
| Monday 13 July 2026 | |||||||||||||
| 12:29 | 1 | 29.3 | 41 | 64,276 | 0 | 0 | 0 | 8.67 | 12.45 | 0 | 5.7 | 9.15 | 11.51 |
| 12:28 | 1 | 29.2 | 42 | 64,234 | 0 | 0 | 0 | 5.97 | 25.95 | 0 | 6.41 | 9.14 | 11.51 |
| 12:25 | 1 | 29.1 | 42 | 63,880 | 0 | 1.46 | 0 | 9.26 | 29.3 | 0 | 4.28 | 8.07 | 9.91 |
| 12:24 | 1 | 29.1 | 42 | 63,782 | 0 | 0.31 | 0 | 9.96 | 23.98 | 0 | 4.99 | 8.07 | 13.09 |
| 12:23 | 1 | 29 | 42 | 63,713 | 0 | 0.43 | 0 | 10.48 | 27.87 | 0 | 4.99 | 8.59 | 10.7 |
| 12:17 | 1 | 28.7 | 42 | 63,315 | 0 | 1.49 | 0 | 13.03 | 21.95 | 0 | 6.41 | 8.04 | 9.9 |
| 12:16 | 1 | 28.6 | 42 | 63,250 | 0 | 2.46 | 0 | 9.14 | 31.6 | 0 | 5.7 | 8.56 | 10.69 |
| 12:13 | 1 | 28.6 | 42 | 63,005 | 0 | 2.67 | 0 | 11.33 | 30.69 | 0 | 5.7 | 8.03 | 11.48 |
| 12:09 | 1 | 28.4 | 43 | 62,290 | 0 | 8.43 | 0 | 12.69 | 39.69 | 0 | 5.7 | 8.51 | 11.46 |
| 12:05 | 1 | 28.1 | 43 | 61,828 | 0 | 9.73 | 0 | 9.79 | 42.87 | 0 | 4.28 | 7.47 | 10.67 |
| 12:04 | 1 | 28.1 | 43 | 61,761 | 0 | 9.35 | 0 | 9.37 | 40.39 | 0 | 4.99 | 7.99 | 10.67 |
| 12:03 | 1 | 28 | 43 | 61,670 | 0 | 10.4 | 0 | 10.29 | 42.47 | 0 | 4.28 | 7.98 | 12.24 |
| 12:02 | 1 | 27.9 | 43 | 61,543 | 0 | 12.3 | 0 | 9.72 | 45.91 | 0 | 3.56 | 6.41 | 7.53 |
| 12:01 | 1 | 27.9 | 43 | 61,409 | 0 | 14.3 | 0 | 12.83 | 44.15 | 0 | 4.99 | 7.46 | 9.1 |
| 12:00 | 1 | 27.8 | 43 | 61,441 | 0 | 12.17 | 0 | 8.58 | 43.78 | 0 | 4.99 | 8 | 9.89 |
| 11:59 | 1 | 27.8 | 43 | 61,618 | 0 | 15.14 | 0 | 10.89 | 45.22 | 0 | 4.28 | 8 | 9.89 |
| 11:58 | 1 | 27.8 | 43 | 61,939 | 0 | 13.67 | 0 | 9.1 | 45.81 | 0 | 5.7 | 11.16 | 16.2 |
| 11:57 | 1 | 27.9 | 42 | 62,116 | 0 | 13.74 | 0 | 9.61 | 47.36 | 0 | 6.41 | 8.55 | 12.27 |
| 11:56 | 1 | 27.9 | 42 | 62,343 | 0 | 13.98 | 0 | 7.63 | 47.27 | 0 | 4.99 | 9.61 | 14.65 |
| 11:55 | 1 | 28 | 42 | 62,606 | 0 | 14.89 | 0 | 8.03 | 46.04 | 0 | 4.28 | 9.1 | 11.49 |